Rogers, AR

4:25 PM CDT on April 25, 2018 (GMT -0500)
Rogers Municipal-Carter

Weather History for KROG - March, 2014

Change the Weather History Date:

Tuesday, March 18, 2014

  Actual Average Record
Temperature  
Mean Temperature 55 °F -  
Max Temperature 68 °F 55 °F 79 °F (2009)
Min Temperature 42 °F 36 °F 32 °F (2001)
Degree Days  
Heating Degree Days 10    
Growing Degree Days 5 (Base 50)    
Moisture  
Dew Point 36 °F    
Average Humidity 53    
Maximum Humidity 80    
Minimum Humidity 32    
Precipitation  
Precipitation 0.00 in - - ()
Sea Level Pressure  
Sea Level Pressure 29.60 in    
Wind  
Wind Speed 16 mph (South)    
Max Wind Speed 33 mph    
Max Gust Speed 43 mph    
Visibility 10 miles    
Events      
Averages and records for this station are not official NWS values.
T = Trace of Precipitation, MM = Missing Value Source: NWS Daily Summary

Daily Weather History Graph

Daily Weather History Graph

Search for Another Location

Airport or City:

Astronomy

Mar. 18, 2014 Rise Set
Actual Time 7:22 AM CDT 7:26 PM CDT
Civil Twilight 6:57 AM CDT 7:52 PM CDT
Nautical Twilight 6:27 AM CDT 8:22 PM CDT
Astronomical Twilight 5:57 AM CDT 8:52 PM CDT
Moon 9:39 PM CDT (3/18) 8:16 AM CDT (3/18)
Length of Visible Light 12h 54m
Length of Day
12h 03m
Waning Gibbous, 96% of the Moon is Illuminated
Mar 18
Waning Gibbous
Mar 23
Last Quarter
Mar 30
New
Apr 7
First Quarter
Apr 15
Full

Hourly Weather History & Observations

Time (CDT) Temp. Windchill Dew Point Humidity Pressure Visibility Wind Dir Wind Speed Gust Speed Precip Events Conditions
12:57 AM 42.1 °F 36.6 °F 33.1 °F 70% 29.72 in 10.0 mi SE 9.2 mph - N/A   Clear
1:57 AM 42.1 °F 36.1 °F 35.1 °F 76% 29.70 in 10.0 mi SE 10.4 mph - N/A   Clear
2:57 AM 42.1 °F 35.2 °F 36.0 °F 79% 29.66 in 10.0 mi SE 12.7 mph - N/A   Clear
3:57 AM 43.0 °F 36.0 °F 36.0 °F 76% 29.62 in 10.0 mi SE 13.8 mph - N/A   Clear
4:57 AM 43.0 °F 36.8 °F 36.0 °F 76% 29.62 in 10.0 mi SE 11.5 mph - N/A   Clear
5:57 AM 43.0 °F 35.4 °F 37.0 °F 80% 29.60 in 10.0 mi SE 16.1 mph 21.9 mph N/A   Clear
6:57 AM 43.0 °F 36.0 °F 36.0 °F 76% 29.60 in 10.0 mi SE 13.8 mph - N/A   Clear
7:57 AM 43.0 °F 36.0 °F 36.0 °F 76% 29.60 in 10.0 mi SSE 13.8 mph - N/A   Clear
8:57 AM 46.0 °F 38.3 °F 36.0 °F 68% 29.58 in 10.0 mi SE 20.7 mph 27.6 mph N/A   Clear
9:57 AM 51.1 °F - 36.0 °F 56% 29.58 in 10.0 mi SSE 20.7 mph 26.5 mph N/A   Clear
10:57 AM 55.9 °F - 36.0 °F 47% 29.57 in 10.0 mi South 25.3 mph 33.4 mph N/A   Clear
11:57 AM 57.9 °F - 35.1 °F 42% 29.55 in 10.0 mi South 33.4 mph 42.6 mph N/A   Clear
12:57 PM 61.0 °F - 35.1 °F 38% 29.53 in 10.0 mi South 27.6 mph 41.4 mph N/A   Clear
1:57 PM 63.0 °F - 37.0 °F 38% 29.52 in 10.0 mi South 21.9 mph 36.8 mph N/A   Clear
2:57 PM 66.0 °F - 37.0 °F 34% 29.50 in 10.0 mi SSW 29.9 mph 35.7 mph N/A   Clear
3:57 PM 68.0 °F - 37.0 °F 32% 29.50 in 10.0 mi SSW 26.5 mph 34.5 mph N/A   Clear
4:57 PM 68.0 °F - 39.0 °F 35% 29.53 in 10.0 mi SSW 18.4 mph 31.1 mph N/A   Clear
5:57 PM 68.0 °F - 39.0 °F 35% 29.53 in 10.0 mi South 19.6 mph - N/A   Clear
6:57 PM 66.0 °F - 39.9 °F 38% 29.55 in 10.0 mi South 13.8 mph 23.0 mph N/A   Clear
7:57 PM 64.0 °F - 41.0 °F 43% 29.59 in 10.0 mi SSW 12.7 mph - N/A   Scattered Clouds
8:57 PM 62.1 °F - 35.1 °F 37% 29.65 in 10.0 mi West 12.7 mph - N/A   Clear
9:57 PM 62.1 °F - 34.0 °F 35% 29.68 in 10.0 mi West 10.4 mph - N/A   Clear
10:57 PM 59.0 °F - 35.1 °F 41% 29.69 in 10.0 mi West 15.0 mph 24.2 mph N/A   Clear
11:57 PM 54.0 °F - 37.0 °F 53% 29.76 in 10.0 mi West 17.3 mph 24.2 mph N/A   Clear